Simultaneous Nadir Overpasses (SNOs) Predictions

Prediction of SNOs between NOAA-19 and METOP-C Satellite Orbit:

Table of predicted SNOs for the next 14.0 days since TLE Epoch: 3/4/2023
Index Date (NOAA-19) Time (NOAA-19) Lat,Lon (NOAA-19) SZA (NOAA-19 ) Date (METOP-C) Time (METOP-C) Lat,Lon (METOP-C) SZA (METOP-C ) Distance(km) Time Diff (sec)
1 03/07/2023 20:25:00 80.93, -91.37 87.40 03/07/2023 20:26:13 80.94, -91.35 87.43 0.90 73
2 03/07/2023 21:15:55 -80.93, 75.69 92.64 03/07/2023 21:16:56 -80.92, 75.67 92.62 0.79 61
3 03/07/2023 22:06:59 80.93,-116.73 87.38 03/07/2023 22:07:35 80.93,-116.85 87.39 2.14 36
4 03/07/2023 22:57:53 -80.93, 50.70 92.62 03/07/2023 22:58:17 -80.93, 50.53 92.63 3.00 24
5 03/07/2023 23:48:58 80.93,-142.09 87.37 03/07/2023 23:48:56 80.94,-141.99 87.38 1.96 2
6 03/08/2023 00:39:53 -80.93, 24.97 92.67 03/08/2023 00:39:39 -80.92, 25.03 92.67 1.26 14
7 03/08/2023 01:30:57 80.93,-167.46 87.35 03/08/2023 01:30:18 80.93,-167.50 87.34 0.76 39



Historial Predications of SNOs between NOAA-19 and METOP-C
